{"data":{"norad_id":40115,"intl_designator":"2014-048A","name":"WORLDVIEW-3 (WV-3)","alt_names":[],"object_type":"PAYLOAD","status":"ACTIVE","operator":null,"country":"US","launch_date":"2014-08-13","launch_site_code":"AFWTR","launch_vehicle":null,"mission":null,"orbit_class":"UNKNOWN","rcs_meters":6.222,"size_class":null,"mass_kg":null,"dimensions":null,"purposes":["earth_obs"],"wikipedia_slug":null,"has_3d_model":false,"image_url":null,"decayed_at":null,"tle_current":{"epoch":"2026-09-20T04:03:57.312576Z","epoch_age_seconds":43052,"freshness":"FRESH","line1":"1 40115U 14048A   26263.16941334  .00000441  00000+0  57790-4 0  9998","line2":"2 40115  97.8487 336.6576 0002030  48.1272 312.0116 14.85145635656004","mean_motion":14.85145635,"eccentricity":0.000203,"inclination_deg":97.8487,"raan_deg":336.6576,"arg_perigee_deg":48.1272,"mean_anomaly_deg":312.0116,"bstar":5.779e-5,"rev_number":65600,"period_min":96.960188015501,"perigee_km":611.70955278985,"apogee_km":614.54800669642,"semimajor_km":6991.2657797431,"source":"CELESTRAK","updated_at":"2026-09-20T09:00:33.961653Z"}}}